Location: Newark
(33.6333°S, 78.8500°W)
Time: 09:25:31
(UTC+00:00)

Tiros 1 despin weight - Pass Details

Date: 25 September 2019
Orbit: 594 x 643 km, 48.2° (Epoch: 15 October)

Event Time Altitude Azimuth Distance (km) Brightness Sun altitude
Rises 01:16:41 0° 360° (N) 2,824 - -26.0°
Reaches altitude 10° 01:20:29 10° 33° (NNE) 1,943 - -26.8°
Maximum altitude 01:21:58 12° 53° (NE) 1,852 - -27.1°
Drops below altitude 10° 01:23:28 10° 72° (ENE) 1,960 - -27.3°
Sets 01:27:20 0° 105° (ESE) 2,888 - -28.1°
